Year,Month,Day,Hour,Minute,Value (Times are PST for windgust in km/hr)
2012,01,24,00,00,11.30
2012,01,24,00,01,16.10
2012,01,24,00,02,11.30
2012,01,24,00,03,4.80
2012,01,24,00,04,4.80
2012,01,24,00,05,9.60
2012,01,24,00,06,6.40
2012,01,24,00,07,4.80
2012,01,24,00,08,4.80
2012,01,24,00,09,8.10
2012,01,24,00,10,8.10
2012,01,24,00,11,6.40
2012,01,24,00,12,11.30
2012,01,24,00,16,6.40
2012,01,24,00,17,6.40
2012,01,24,00,18,16.10
2012,01,24,00,19,8.10
2012,01,24,00,20,1.60
2012,01,24,00,21,3.20
2012,01,24,00,22,4.80
2012,01,24,00,23,12.90
2012,01,24,00,24,8.10
2012,01,24,00,25,11.30
2012,01,24,00,26,4.80
2012,01,24,00,27,3.20
2012,01,24,00,29,3.20
2012,01,24,00,30,3.20
2012,01,24,00,31,9.60
2012,01,24,00,32,8.10
2012,01,24,00,33,3.20
2012,01,24,00,34,6.40
2012,01,24,00,35,3.20
2012,01,24,00,36,6.40
2012,01,24,00,37,6.40
2012,01,24,00,38,3.20
2012,01,24,00,39,8.10
2012,01,24,00,40,8.10
2012,01,24,00,41,6.40
2012,01,24,00,42,9.60
2012,01,24,00,43,4.80
2012,01,24,00,44,11.30
2012,01,24,00,45,9.60
2012,01,24,00,46,3.20
2012,01,24,00,47,4.80
2012,01,24,00,48,6.40
2012,01,24,00,49,3.20
2012,01,24,00,50,6.40
2012,01,24,00,51,3.20
2012,01,24,00,52,6.40
2012,01,24,00,53,4.80
2012,01,24,00,54,3.20
2012,01,24,00,55,3.20
2012,01,24,00,56,3.20
2012,01,24,00,57,9.60
2012,01,24,00,58,11.30
2012,01,24,00,59,11.30
2012,01,24,01,00,4.80
2012,01,24,01,01,6.40
2012,01,24,01,02,4.80
2012,01,24,01,03,6.40
2012,01,24,01,04,4.80
2012,01,24,01,05,4.80
2012,01,24,01,06,8.10
2012,01,24,01,07,11.30
2012,01,24,01,08,6.40
2012,01,24,01,09,1.60
2012,01,24,01,10,8.10
2012,01,24,01,11,4.80
2012,01,24,01,12,8.10
2012,01,24,01,13,4.80
2012,01,24,01,14,4.80
2012,01,24,01,15,8.10
2012,01,24,01,16,8.10
2012,01,24,01,17,11.30
2012,01,24,01,18,11.30
2012,01,24,01,19,1.60
2012,01,24,01,20,1.60
2012,01,24,01,21,4.80
2012,01,24,01,22,12.90
2012,01,24,01,23,8.10
2012,01,24,01,24,8.10
2012,01,24,01,25,8.10
2012,01,24,01,26,4.80
2012,01,24,01,27,8.10
2012,01,24,01,28,8.10
2012,01,24,01,29,9.60
2012,01,24,01,30,4.80
2012,01,24,01,31,8.10
2012,01,24,01,32,6.40
2012,01,24,01,33,3.20
2012,01,24,01,34,4.80
2012,01,24,01,35,6.40
2012,01,24,01,36,8.10
2012,01,24,01,37,8.10
2012,01,24,01,38,6.40
2012,01,24,01,39,1.60
2012,01,24,01,40,4.80
2012,01,24,01,41,6.40
2012,01,24,01,42,3.20
2012,01,24,01,43,3.20
2012,01,24,01,44,4.80
2012,01,24,01,45,4.80
2012,01,24,01,46,1.60
2012,01,24,01,47,1.60
2012,01,24,01,48,4.80
2012,01,24,01,49,3.20
2012,01,24,01,50,9.60
2012,01,24,01,51,6.40
2012,01,24,01,52,1.60
2012,01,24,01,53,1.60
2012,01,24,01,54,6.40
2012,01,24,01,55,8.10
2012,01,24,01,56,3.20
2012,01,24,01,58,1.60
2012,01,24,01,59,1.60
2012,01,24,02,00,1.60
2012,01,24,02,01,1.60
2012,01,24,02,02,3.20
2012,01,24,02,04,3.20
2012,01,24,02,05,4.80
2012,01,24,02,06,9.60
2012,01,24,02,07,6.40
2012,01,24,02,08,8.10
2012,01,24,02,09,4.80
2012,01,24,02,10,1.60
2012,01,24,02,11,3.20
2012,01,24,02,12,1.60
2012,01,24,02,13,1.60
2012,01,24,02,14,1.60
2012,01,24,02,16,6.40
2012,01,24,02,17,4.80
2012,01,24,02,18,4.80
2012,01,24,02,19,4.80
2012,01,24,02,20,6.40
2012,01,24,02,21,6.40
2012,01,24,02,22,4.80
2012,01,24,02,23,6.40
2012,01,24,02,24,4.80
2012,01,24,02,25,1.60
2012,01,24,02,26,1.60
2012,01,24,02,27,1.60
2012,01,24,02,29,3.20
2012,01,24,02,30,3.20
2012,01,24,02,31,1.60
2012,01,24,02,32,3.20
2012,01,24,02,33,1.60
2012,01,24,02,35,1.60
2012,01,24,02,36,1.60
2012,01,24,02,37,1.60
2012,01,24,02,38,3.20
2012,01,24,02,39,3.20
2012,01,24,02,40,3.20
2012,01,24,02,41,3.20
2012,01,24,02,42,1.60
2012,01,24,02,44,3.20
2012,01,24,02,45,4.80
2012,01,24,02,46,3.20
2012,01,24,02,47,1.60
2012,01,24,02,49,1.60
2012,01,24,02,50,3.20
2012,01,24,02,51,3.20
2012,01,24,02,52,3.20
2012,01,24,02,55,3.20
2012,01,24,02,56,8.10
2012,01,24,02,57,4.80
2012,01,24,02,58,3.20
2012,01,24,02,59,1.60
2012,01,24,03,00,3.20
2012,01,24,03,01,9.60
2012,01,24,03,02,3.20
2012,01,24,03,03,1.60
2012,01,24,03,04,1.60
2012,01,24,03,05,6.40
2012,01,24,03,06,6.40
2012,01,24,03,07,1.60
2012,01,24,03,08,6.40
2012,01,24,03,09,3.20
2012,01,24,03,10,1.60
2012,01,24,03,11,1.60
2012,01,24,03,12,1.60
2012,01,24,03,13,3.20
2012,01,24,03,14,3.20
2012,01,24,03,15,3.20
2012,01,24,03,16,8.10
2012,01,24,03,17,1.60
2012,01,24,03,18,6.40
2012,01,24,03,19,6.40
2012,01,24,03,21,1.60
2012,01,24,03,24,1.60
2012,01,24,03,26,1.60
2012,01,24,03,27,4.80
2012,01,24,03,28,3.20
2012,01,24,03,29,6.40
2012,01,24,03,30,8.10
2012,01,24,03,31,4.80
2012,01,24,03,32,1.60
2012,01,24,03,33,3.20
2012,01,24,03,34,4.80
2012,01,24,03,35,4.80
2012,01,24,03,36,3.20
2012,01,24,03,37,4.80
2012,01,24,03,38,3.20
2012,01,24,03,41,1.60
2012,01,24,03,42,3.20
2012,01,24,03,43,3.20
2012,01,24,03,44,3.20
2012,01,24,03,45,4.80
2012,01,24,03,46,9.60
2012,01,24,03,47,1.60
2012,01,24,03,48,1.60
2012,01,24,03,49,8.10
2012,01,24,03,50,3.20
2012,01,24,03,51,6.40
2012,01,24,03,52,1.60
2012,01,24,03,53,1.60
2012,01,24,03,54,4.80
2012,01,24,03,55,1.60
2012,01,24,03,56,1.60
2012,01,24,03,57,1.60
2012,01,24,04,06,3.20
2012,01,24,04,07,3.20
2012,01,24,04,08,1.60
2012,01,24,04,14,1.60
2012,01,24,04,19,1.60
2012,01,24,04,24,1.60
2012,01,24,04,25,1.60
2012,01,24,04,26,1.60
2012,01,24,04,27,1.60
2012,01,24,04,31,1.60
2012,01,24,04,34,4.80
2012,01,24,04,35,4.80
2012,01,24,04,36,1.60
2012,01,24,04,37,1.60
2012,01,24,04,40,1.60
2012,01,24,04,41,6.40
2012,01,24,04,42,6.40
2012,01,24,04,43,3.20
2012,01,24,04,44,3.20
2012,01,24,04,45,1.60
2012,01,24,04,46,1.60
2012,01,24,04,47,3.20
2012,01,24,04,48,1.60
2012,01,24,04,51,1.60
2012,01,24,04,52,4.80
2012,01,24,04,53,3.20
2012,01,24,04,54,3.20
2012,01,24,04,55,1.60
2012,01,24,04,56,1.60
2012,01,24,04,58,1.60
2012,01,24,04,59,1.60
2012,01,24,05,00,1.60
2012,01,24,05,01,3.20
2012,01,24,05,03,1.60
2012,01,24,05,04,1.60
2012,01,24,05,05,1.60
2012,01,24,05,06,8.10
2012,01,24,05,07,6.40
2012,01,24,05,08,6.40
2012,01,24,05,09,4.80
2012,01,24,05,10,8.10
2012,01,24,05,11,6.40
2012,01,24,05,12,1.60
2012,01,24,05,13,3.20
2012,01,24,05,14,1.60
2012,01,24,05,15,1.60
2012,01,24,05,16,4.80
2012,01,24,05,17,6.40
2012,01,24,05,18,3.20
2012,01,24,05,19,4.80
2012,01,24,05,20,9.60
2012,01,24,05,21,4.80
2012,01,24,05,22,9.60
2012,01,24,05,23,6.40
2012,01,24,05,24,3.20
2012,01,24,05,27,4.80
2012,01,24,05,28,1.60
2012,01,24,05,29,1.60
2012,01,24,05,32,1.60
2012,01,24,05,33,1.60
2012,01,24,05,34,3.20
2012,01,24,05,36,3.20
2012,01,24,05,37,3.20
2012,01,24,05,39,1.60
2012,01,24,05,40,1.60
2012,01,24,05,41,1.60
2012,01,24,05,42,3.20
2012,01,24,05,43,3.20
2012,01,24,05,44,1.60
2012,01,24,05,45,3.20
2012,01,24,05,47,1.60
2012,01,24,05,49,3.20
2012,01,24,05,50,3.20
2012,01,24,05,51,3.20
2012,01,24,05,52,6.40
2012,01,24,05,53,3.20
2012,01,24,05,54,3.20
2012,01,24,05,55,3.20
2012,01,24,05,56,6.40
2012,01,24,05,57,3.20
2012,01,24,05,59,1.60
2012,01,24,06,00,4.80
2012,01,24,06,01,9.60
2012,01,24,06,02,6.40
2012,01,24,06,03,1.60
2012,01,24,06,04,6.40
2012,01,24,06,05,6.40
2012,01,24,06,06,6.40
2012,01,24,06,07,4.80
2012,01,24,06,08,3.20
2012,01,24,06,09,3.20
2012,01,24,06,10,1.60
2012,01,24,06,11,1.60
2012,01,24,06,12,1.60
2012,01,24,06,13,8.10
2012,01,24,06,14,12.90
2012,01,24,06,15,6.40
2012,01,24,06,16,4.80
2012,01,24,06,17,3.20
2012,01,24,06,18,8.10
2012,01,24,06,19,6.40
2012,01,24,06,20,4.80
2012,01,24,06,21,6.40
2012,01,24,06,22,8.10
2012,01,24,06,23,4.80
2012,01,24,06,24,9.60
2012,01,24,06,25,11.30
2012,01,24,06,26,9.60
2012,01,24,06,27,9.60
2012,01,24,06,28,9.60
2012,01,24,06,29,11.30
2012,01,24,06,30,16.10
2012,01,24,06,31,22.50
2012,01,24,06,32,25.70
2012,01,24,06,33,20.90
2012,01,24,06,34,11.30
2012,01,24,06,35,14.50
2012,01,24,06,36,19.30
2012,01,24,06,37,32.20
2012,01,24,06,38,22.50
2012,01,24,06,39,25.70
2012,01,24,06,40,22.50
2012,01,24,06,41,20.90
2012,01,24,06,42,8.10
2012,01,24,06,43,24.20
2012,01,24,06,44,29.00
2012,01,24,06,45,25.70
2012,01,24,06,46,8.10
2012,01,24,06,47,24.20
2012,01,24,06,48,24.20
2012,01,24,06,49,29.00
2012,01,24,06,50,20.90
2012,01,24,06,51,20.90
2012,01,24,06,52,19.30
2012,01,24,06,53,25.70
2012,01,24,06,54,22.50
2012,01,24,06,55,24.20
2012,01,24,06,56,17.70
2012,01,24,06,57,8.10
2012,01,24,06,58,17.70
2012,01,24,06,59,25.70
2012,01,24,07,00,17.70
2012,01,24,07,01,16.10
2012,01,24,07,02,16.10
2012,01,24,07,03,16.10
2012,01,24,07,04,25.70
2012,01,24,07,05,35.40
2012,01,24,07,06,16.10
2012,01,24,07,07,32.20
2012,01,24,07,08,25.70
2012,01,24,07,09,40.20
2012,01,24,07,10,38.60
2012,01,24,07,11,17.70
2012,01,24,07,12,25.70
2012,01,24,07,13,25.70
2012,01,24,07,14,20.90
2012,01,24,07,15,20.90
2012,01,24,07,16,20.90
2012,01,24,07,17,25.70
2012,01,24,07,18,33.80
2012,01,24,07,19,11.30
2012,01,24,07,20,25.70
2012,01,24,07,21,30.60
2012,01,24,07,22,32.20
2012,01,24,07,23,20.90
2012,01,24,07,24,17.70
2012,01,24,07,25,33.80
2012,01,24,07,26,16.10
2012,01,24,07,27,11.30
2012,01,24,07,28,24.20
2012,01,24,07,29,37.00
2012,01,24,07,30,12.90
2012,01,24,07,31,38.60
2012,01,24,07,32,29.00
2012,01,24,07,33,30.60
2012,01,24,07,34,24.20
2012,01,24,07,35,27.40
2012,01,24,07,36,27.40
2012,01,24,07,37,25.70
2012,01,24,07,38,19.30
2012,01,24,07,39,20.90
2012,01,24,07,40,25.70
2012,01,24,07,41,11.30
2012,01,24,07,42,12.90
2012,01,24,07,43,19.30
2012,01,24,07,44,14.50
2012,01,24,07,45,17.70
2012,01,24,07,46,32.20
2012,01,24,07,47,32.20
2012,01,24,07,48,35.40
2012,01,24,07,49,25.70
2012,01,24,07,50,24.20
2012,01,24,07,51,22.50
2012,01,24,07,52,25.70
2012,01,24,07,53,37.00
2012,01,24,07,54,16.10
2012,01,24,07,55,30.60
2012,01,24,07,56,38.60
2012,01,24,07,57,22.50
2012,01,24,07,58,22.50
2012,01,24,07,59,35.40
2012,01,24,08,00,22.50
2012,01,24,08,01,33.80
2012,01,24,08,02,33.80
2012,01,24,08,03,27.40
2012,01,24,08,04,20.90
2012,01,24,08,05,14.50
2012,01,24,08,06,32.20
2012,01,24,08,07,29.00
2012,01,24,08,08,25.70
2012,01,24,08,09,17.70
2012,01,24,08,10,9.60
2012,01,24,08,11,25.70
2012,01,24,08,12,37.00
2012,01,24,08,13,33.80
2012,01,24,08,14,45.10
2012,01,24,08,15,20.90
2012,01,24,08,16,37.00
2012,01,24,08,17,30.60
2012,01,24,08,18,33.80
2012,01,24,08,19,22.50
2012,01,24,08,20,17.70
2012,01,24,08,21,19.30
2012,01,24,08,22,38.60
2012,01,24,08,23,30.60
2012,01,24,08,24,24.20
2012,01,24,08,25,20.90
2012,01,24,08,26,11.30
2012,01,24,08,27,17.70
2012,01,24,08,28,24.20
2012,01,24,08,29,20.90
2012,01,24,08,30,6.40
2012,01,24,08,31,24.20
2012,01,24,08,32,11.30
2012,01,24,08,33,9.60
2012,01,24,08,34,9.60
2012,01,24,08,35,19.30
2012,01,24,08,36,27.40
2012,01,24,08,37,49.90
2012,01,24,08,38,38.60
2012,01,24,08,39,30.60
2012,01,24,08,40,9.60
2012,01,24,08,41,25.70
2012,01,24,08,42,20.90
2012,01,24,08,43,17.70
2012,01,24,08,44,14.50
2012,01,24,08,45,30.60
2012,01,24,08,46,62.70
2012,01,24,08,47,20.90
2012,01,24,08,48,14.50
2012,01,24,08,49,20.90
2012,01,24,08,50,25.70
2012,01,24,08,51,33.80
2012,01,24,08,52,27.40
2012,01,24,08,53,17.70
2012,01,24,08,54,24.20
2012,01,24,08,55,11.30
2012,01,24,08,56,16.10
2012,01,24,08,57,17.70
2012,01,24,08,58,38.60
2012,01,24,08,59,27.40
2012,01,24,09,00,30.60
2012,01,24,09,01,19.30
2012,01,24,09,02,33.80
2012,01,24,09,03,22.50
2012,01,24,09,04,27.40
2012,01,24,09,05,16.10
2012,01,24,09,06,24.20
2012,01,24,09,07,20.90
2012,01,24,09,08,17.70
2012,01,24,09,09,25.70
2012,01,24,09,10,22.50
2012,01,24,09,11,32.20
2012,01,24,09,12,35.40
2012,01,24,09,13,38.60
2012,01,24,09,14,27.40
2012,01,24,09,15,27.40
2012,01,24,09,16,17.70
2012,01,24,09,17,30.60
2012,01,24,09,18,37.00
2012,01,24,09,19,25.70
2012,01,24,09,20,22.50
2012,01,24,09,21,32.20
2012,01,24,09,22,29.00
2012,01,24,09,23,14.50
2012,01,24,09,24,19.30
2012,01,24,09,25,38.60
2012,01,24,09,26,30.60
2012,01,24,09,27,11.30
2012,01,24,09,28,32.20
2012,01,24,09,29,45.10
2012,01,24,09,30,41.80
2012,01,24,09,31,20.90
2012,01,24,09,32,27.40
2012,01,24,09,33,24.20
2012,01,24,09,34,11.30
2012,01,24,09,35,27.40
2012,01,24,09,36,17.70
2012,01,24,09,37,25.70
2012,01,24,09,38,29.00
2012,01,24,09,39,20.90
2012,01,24,09,40,24.20
2012,01,24,09,41,32.20
2012,01,24,09,42,30.60
2012,01,24,09,43,20.90
2012,01,24,09,44,25.70
2012,01,24,09,45,22.50
2012,01,24,09,46,27.40
2012,01,24,09,47,29.00
2012,01,24,09,48,20.90
2012,01,24,09,49,17.70
2012,01,24,09,50,43.50
2012,01,24,09,51,16.10
2012,01,24,09,52,11.30
2012,01,24,09,53,25.70
2012,01,24,09,54,20.90
2012,01,24,09,55,17.70
2012,01,24,09,56,27.40
2012,01,24,09,57,24.20
2012,01,24,09,58,24.20
2012,01,24,09,59,30.60
2012,01,24,10,00,9.60
2012,01,24,10,01,19.30
2012,01,24,10,02,22.50
2012,01,24,10,03,38.60
2012,01,24,10,04,35.40
2012,01,24,10,05,37.00
2012,01,24,10,06,24.20
2012,01,24,10,07,29.00
2012,01,24,10,08,35.40
2012,01,24,10,09,22.50
2012,01,24,10,10,27.40
2012,01,24,10,11,33.80
2012,01,24,10,12,24.20
2012,01,24,10,13,37.00
2012,01,24,10,14,41.80
2012,01,24,10,15,32.20
2012,01,24,10,16,33.80
2012,01,24,10,17,37.00
2012,01,24,10,18,33.80
2012,01,24,10,19,33.80
2012,01,24,10,20,32.20
2012,01,24,10,21,19.30
2012,01,24,10,22,19.30
2012,01,24,10,23,24.20
2012,01,24,10,24,14.50
2012,01,24,10,25,22.50
2012,01,24,10,26,41.80
2012,01,24,10,27,37.00
2012,01,24,10,28,25.70
2012,01,24,10,29,33.80
2012,01,24,10,30,22.50
2012,01,24,10,31,29.00
2012,01,24,10,32,37.00
2012,01,24,10,33,16.10
2012,01,24,10,34,30.60
2012,01,24,10,35,29.00
2012,01,24,10,36,37.00
2012,01,24,10,37,37.00
2012,01,24,10,38,29.00
2012,01,24,10,39,35.40
2012,01,24,10,40,38.60
2012,01,24,10,41,37.00
2012,01,24,10,42,17.70
2012,01,24,10,43,38.60
2012,01,24,10,44,33.80
2012,01,24,10,45,32.20
2012,01,24,10,46,33.80
2012,01,24,10,47,27.40
2012,01,24,10,48,33.80
2012,01,24,10,49,25.70
2012,01,24,10,50,11.30
2012,01,24,10,51,32.20
2012,01,24,10,52,30.60
2012,01,24,10,53,40.20
2012,01,24,10,54,33.80
2012,01,24,10,55,29.00
2012,01,24,10,56,43.50
2012,01,24,10,57,40.20
2012,01,24,10,58,27.40
2012,01,24,10,59,19.30
2012,01,24,11,00,20.90
2012,01,24,11,01,14.50
2012,01,24,11,02,41.80
2012,01,24,11,03,35.40
2012,01,24,11,04,32.20
2012,01,24,11,05,25.70
2012,01,24,11,06,32.20
2012,01,24,11,07,40.20
2012,01,24,11,08,17.70
2012,01,24,11,09,14.50
2012,01,24,11,10,22.50
2012,01,24,11,11,20.90
2012,01,24,11,12,22.50
2012,01,24,11,13,25.70
2012,01,24,11,14,35.40
2012,01,24,11,15,25.70
2012,01,24,11,16,33.80
2012,01,24,11,17,32.20
2012,01,24,11,18,29.00
2012,01,24,11,19,29.00
2012,01,24,11,20,20.90
2012,01,24,11,21,19.30
2012,01,24,11,22,35.40
2012,01,24,11,23,27.40
2012,01,24,11,24,37.00
2012,01,24,11,25,25.70
2012,01,24,11,26,22.50
2012,01,24,11,27,14.50
2012,01,24,11,28,27.40
2012,01,24,11,29,35.40
2012,01,24,11,30,29.00
2012,01,24,11,31,24.20
2012,01,24,11,32,17.70
2012,01,24,11,33,30.60
2012,01,24,11,34,35.40
2012,01,24,11,35,32.20
2012,01,24,11,36,19.30
2012,01,24,11,37,29.00
2012,01,24,11,38,32.20
2012,01,24,11,39,24.20
2012,01,24,11,40,30.60
2012,01,24,11,41,40.20
2012,01,24,11,42,27.40
2012,01,24,11,43,27.40
2012,01,24,11,44,25.70
2012,01,24,11,45,30.60
2012,01,24,11,46,38.60
2012,01,24,11,47,41.80
2012,01,24,11,48,29.00
2012,01,24,11,49,27.40
2012,01,24,11,50,22.50
2012,01,24,11,51,37.00
2012,01,24,11,52,30.60
2012,01,24,11,53,19.30
2012,01,24,11,54,16.10
2012,01,24,11,55,35.40
2012,01,24,11,56,33.80
2012,01,24,11,57,41.80
2012,01,24,11,58,24.20
2012,01,24,11,59,27.40
2012,01,24,12,00,33.80
2012,01,24,12,01,16.10
2012,01,24,12,02,12.90
2012,01,24,12,03,38.60
2012,01,24,12,04,25.70
2012,01,24,12,05,37.00
2012,01,24,12,06,29.00
2012,01,24,12,07,19.30
2012,01,24,12,08,30.60
2012,01,24,12,09,32.20
2012,01,24,12,10,20.90
2012,01,24,12,11,17.70
2012,01,24,12,12,38.60
2012,01,24,12,13,25.70
2012,01,24,12,14,37.00
2012,01,24,12,15,22.50
2012,01,24,12,16,32.20
2012,01,24,12,17,35.40
2012,01,24,12,18,24.20
2012,01,24,12,19,24.20
2012,01,24,12,20,24.20
2012,01,24,12,21,29.00
2012,01,24,12,22,37.00
2012,01,24,12,23,20.90
2012,01,24,12,24,22.50
2012,01,24,12,25,16.10
2012,01,24,12,26,22.50
2012,01,24,12,27,24.20
2012,01,24,12,28,17.70
2012,01,24,12,29,24.20
2012,01,24,12,30,24.20
2012,01,24,12,31,35.40
2012,01,24,12,32,29.00
2012,01,24,12,33,33.80
2012,01,24,12,34,38.60
2012,01,24,12,35,25.70
2012,01,24,12,36,35.40
2012,01,24,12,37,22.50
2012,01,24,12,38,35.40
2012,01,24,12,39,25.70
2012,01,24,12,40,33.80
2012,01,24,12,41,19.30
2012,01,24,12,42,33.80
2012,01,24,12,43,25.70
2012,01,24,12,44,30.60
2012,01,24,12,45,30.60
2012,01,24,12,46,27.40
2012,01,24,12,47,35.40
2012,01,24,12,48,20.90
2012,01,24,12,49,35.40
2012,01,24,12,50,41.80
2012,01,24,12,51,27.40
2012,01,24,12,52,37.00
2012,01,24,12,53,29.00
2012,01,24,12,54,17.70
2012,01,24,12,55,33.80
2012,01,24,12,56,27.40
2012,01,24,12,57,35.40
2012,01,24,12,58,20.90
2012,01,24,12,59,29.00
2012,01,24,13,00,19.30
2012,01,24,13,01,30.60
2012,01,24,13,02,25.70
2012,01,24,13,03,19.30
2012,01,24,13,04,40.20
2012,01,24,13,05,14.50
2012,01,24,13,06,8.10
2012,01,24,13,07,17.70
2012,01,24,13,08,14.50
2012,01,24,13,09,22.50
2012,01,24,13,10,27.40
2012,01,24,13,11,25.70
2012,01,24,13,12,16.10
2012,01,24,13,13,25.70
2012,01,24,13,14,11.30
2012,01,24,13,15,22.50
2012,01,24,13,16,20.90
2012,01,24,13,17,17.70
2012,01,24,13,18,20.90
2012,01,24,13,19,17.70
2012,01,24,13,20,24.20
2012,01,24,13,21,32.20
2012,01,24,13,22,24.20
2012,01,24,13,23,6.40
2012,01,24,13,24,19.30
2012,01,24,13,25,17.70
2012,01,24,13,26,20.90
2012,01,24,13,27,27.40
2012,01,24,13,28,9.60
2012,01,24,13,29,30.60
2012,01,24,13,30,24.20
2012,01,24,13,31,20.90
2012,01,24,13,32,27.40
2012,01,24,13,33,11.30
2012,01,24,13,34,16.10
2012,01,24,13,35,11.30
2012,01,24,13,36,20.90
2012,01,24,13,37,11.30
2012,01,24,13,38,19.30
2012,01,24,13,39,16.10
2012,01,24,13,40,16.10
2012,01,24,13,41,20.90
2012,01,24,13,42,12.90
2012,01,24,13,43,32.20
2012,01,24,13,44,20.90
2012,01,24,13,45,16.10
2012,01,24,13,46,8.10
2012,01,24,13,47,27.40
2012,01,24,13,48,9.60
2012,01,24,13,49,17.70
2012,01,24,13,50,33.80
2012,01,24,13,51,27.40
2012,01,24,13,52,27.40
2012,01,24,13,53,8.10
2012,01,24,13,54,27.40
2012,01,24,13,55,24.20
2012,01,24,13,56,24.20
2012,01,24,13,57,25.70
2012,01,24,13,58,19.30
2012,01,24,13,59,17.70
2012,01,24,14,00,8.10
2012,01,24,14,01,8.10
2012,01,24,14,02,3.20
2012,01,24,14,03,8.10
2012,01,24,14,04,20.90
2012,01,24,14,05,17.70
2012,01,24,14,06,11.30
2012,01,24,14,07,11.30
2012,01,24,14,08,25.70
2012,01,24,14,09,11.30
2012,01,24,14,10,20.90
2012,01,24,14,11,6.40
2012,01,24,14,12,17.70
2012,01,24,14,13,8.10
2012,01,24,14,14,6.40
2012,01,24,14,15,19.30
2012,01,24,14,16,8.10
2012,01,24,14,17,8.10
2012,01,24,14,18,9.60
2012,01,24,14,19,16.10
2012,01,24,14,20,16.10
2012,01,24,14,21,11.30
2012,01,24,14,22,11.30
2012,01,24,14,23,22.50
2012,01,24,14,24,22.50
2012,01,24,14,25,14.50
2012,01,24,14,26,9.60
2012,01,24,14,27,11.30
2012,01,24,14,28,4.80
2012,01,24,14,29,17.70
2012,01,24,14,30,16.10
2012,01,24,14,31,19.30
2012,01,24,14,32,12.90
2012,01,24,14,33,14.50
2012,01,24,14,34,14.50
2012,01,24,14,35,20.90
2012,01,24,14,36,19.30
2012,01,24,14,37,16.10
2012,01,24,14,38,24.20
2012,01,24,14,39,20.90
2012,01,24,14,40,19.30
2012,01,24,14,41,17.70
2012,01,24,14,42,19.30
2012,01,24,14,43,25.70
2012,01,24,14,44,14.50
2012,01,24,14,45,16.10
2012,01,24,14,46,20.90
2012,01,24,14,47,11.30
2012,01,24,14,48,19.30
2012,01,24,14,49,20.90
2012,01,24,14,50,24.20
2012,01,24,14,51,24.20
2012,01,24,14,52,19.30
2012,01,24,14,53,22.50
2012,01,24,14,54,11.30
2012,01,24,14,55,11.30
2012,01,24,14,56,8.10
2012,01,24,14,57,8.10
2012,01,24,14,58,14.50
2012,01,24,14,59,14.50
2012,01,24,15,00,20.90
2012,01,24,15,01,22.50
2012,01,24,15,02,27.40
2012,01,24,15,03,30.60
2012,01,24,15,04,24.20
2012,01,24,15,05,14.50
2012,01,24,15,06,38.60
2012,01,24,15,07,32.20
2012,01,24,15,08,17.70
2012,01,24,15,09,14.50
2012,01,24,15,10,17.70
2012,01,24,15,11,19.30
2012,01,24,15,12,33.80
2012,01,24,15,13,22.50
2012,01,24,15,14,30.60
2012,01,24,15,15,17.70
2012,01,24,15,16,17.70
2012,01,24,15,17,16.10
2012,01,24,15,18,20.90
2012,01,24,15,19,9.60
2012,01,24,15,20,14.50
2012,01,24,15,21,8.10
2012,01,24,15,22,19.30
2012,01,24,15,23,11.30
2012,01,24,15,24,20.90
2012,01,24,15,25,25.70
2012,01,24,15,26,11.30
2012,01,24,15,27,11.30
2012,01,24,15,28,19.30
2012,01,24,15,29,29.00
2012,01,24,15,30,14.50
2012,01,24,15,31,22.50
2012,01,24,15,32,17.70
2012,01,24,15,33,6.40
2012,01,24,15,34,16.10
2012,01,24,15,35,24.20
2012,01,24,15,36,11.30
2012,01,24,15,37,19.30
2012,01,24,15,38,4.80
2012,01,24,15,39,4.80
2012,01,24,15,40,20.90
2012,01,24,15,41,20.90
2012,01,24,15,42,17.70
2012,01,24,15,43,4.80
2012,01,24,15,44,19.30
2012,01,24,15,45,19.30
2012,01,24,15,46,9.60
2012,01,24,15,47,12.90
2012,01,24,15,48,9.60
2012,01,24,15,49,9.60
2012,01,24,15,50,24.20
2012,01,24,15,51,19.30
2012,01,24,15,52,6.40
2012,01,24,15,53,17.70
2012,01,24,15,54,11.30
2012,01,24,15,55,14.50
2012,01,24,15,56,8.10
2012,01,24,15,57,11.30
2012,01,24,15,58,9.60
2012,01,24,15,59,9.60
2012,01,24,16,00,8.10
2012,01,24,16,01,8.10
2012,01,24,16,02,9.60
2012,01,24,16,03,27.40
2012,01,24,16,04,16.10
2012,01,24,16,05,17.70
2012,01,24,16,06,9.60
2012,01,24,16,07,25.70
2012,01,24,16,08,14.50
2012,01,24,16,09,17.70
2012,01,24,16,10,4.80
2012,01,24,16,11,19.30
2012,01,24,16,12,16.10
2012,01,24,16,13,12.90
2012,01,24,16,14,6.40
2012,01,24,16,15,9.60
2012,01,24,16,16,16.10
2012,01,24,16,17,16.10
2012,01,24,16,18,9.60
2012,01,24,16,19,8.10
2012,01,24,16,20,24.20
2012,01,24,16,21,8.10
2012,01,24,16,22,14.50
2012,01,24,16,23,11.30
2012,01,24,16,24,17.70
2012,01,24,16,25,14.50
2012,01,24,16,26,11.30
2012,01,24,16,27,9.60
2012,01,24,16,28,30.60
2012,01,24,16,29,24.20
2012,01,24,16,30,8.10
2012,01,24,16,31,6.40
2012,01,24,16,32,6.40
2012,01,24,16,33,16.10
2012,01,24,16,34,16.10
2012,01,24,16,35,14.50
2012,01,24,16,36,14.50
2012,01,24,16,37,6.40
2012,01,24,16,38,11.30
2012,01,24,16,39,16.10
2012,01,24,16,40,16.10
2012,01,24,16,41,8.10
2012,01,24,16,42,12.90
2012,01,24,16,43,24.20
2012,01,24,16,44,12.90
2012,01,24,16,45,11.30
2012,01,24,16,46,9.60
2012,01,24,16,47,8.10
2012,01,24,16,48,19.30
2012,01,24,16,49,6.40
2012,01,24,16,50,4.80
2012,01,24,16,51,1.60
2012,01,24,16,52,22.50
2012,01,24,16,53,11.30
2012,01,24,16,54,3.20
2012,01,24,16,55,4.80
2012,01,24,16,56,1.60
2012,01,24,16,57,4.80
2012,01,24,16,58,8.10
2012,01,24,16,59,4.80
2012,01,24,17,00,9.60
2012,01,24,17,01,16.10
2012,01,24,17,02,6.40
2012,01,24,17,03,6.40
2012,01,24,17,04,9.60
2012,01,24,17,05,8.10
2012,01,24,17,06,14.50
2012,01,24,17,07,3.20
2012,01,24,17,08,11.30
2012,01,24,17,09,8.10
2012,01,24,17,10,11.30
2012,01,24,17,11,14.50
2012,01,24,17,12,14.50
2012,01,24,17,13,11.30
2012,01,24,17,14,11.30
2012,01,24,17,15,9.60
2012,01,24,17,16,9.60
2012,01,24,17,17,8.10
2012,01,24,17,18,19.30
2012,01,24,17,19,8.10
2012,01,24,17,20,12.90
2012,01,24,17,21,6.40
2012,01,24,17,22,3.20
2012,01,24,17,23,4.80
2012,01,24,17,24,4.80
2012,01,24,17,25,4.80
2012,01,24,17,26,6.40
2012,01,24,17,27,8.10
2012,01,24,17,28,14.50
2012,01,24,17,29,4.80
2012,01,24,17,30,6.40
2012,01,24,17,31,9.60
2012,01,24,17,32,17.70
2012,01,24,17,33,17.70
2012,01,24,17,34,14.50
2012,01,24,17,35,19.30
2012,01,24,17,36,17.70
2012,01,24,17,37,6.40
2012,01,24,17,38,14.50
2012,01,24,17,39,14.50
2012,01,24,17,40,12.90
2012,01,24,17,41,16.10
2012,01,24,17,42,22.50
2012,01,24,17,43,16.10
2012,01,24,17,44,17.70
2012,01,24,17,45,17.70
2012,01,24,17,46,9.60
2012,01,24,17,47,20.90
2012,01,24,17,48,16.10
2012,01,24,17,49,14.50
2012,01,24,17,50,11.30
2012,01,24,17,51,20.90
2012,01,24,17,52,11.30
2012,01,24,17,53,16.10
2012,01,24,17,54,17.70
2012,01,24,17,55,14.50
2012,01,24,17,56,16.10
2012,01,24,17,57,19.30
2012,01,24,17,58,24.20
2012,01,24,17,59,20.90
2012,01,24,18,00,20.90
2012,01,24,18,01,19.30
2012,01,24,18,02,16.10
2012,01,24,18,03,25.70
2012,01,24,18,04,16.10
2012,01,24,18,05,16.10
2012,01,24,18,06,19.30
2012,01,24,18,07,19.30
2012,01,24,18,08,33.80
2012,01,24,18,09,25.70
2012,01,24,18,10,16.10
2012,01,24,18,11,24.20
2012,01,24,18,12,33.80
2012,01,24,18,13,20.90
2012,01,24,18,14,16.10
2012,01,24,18,15,25.70
2012,01,24,18,16,17.70
2012,01,24,18,17,6.40
2012,01,24,18,18,24.20
2012,01,24,18,19,17.70
2012,01,24,18,20,20.90
2012,01,24,18,21,11.30
2012,01,24,18,22,11.30
2012,01,24,18,23,11.30
2012,01,24,18,24,9.60
2012,01,24,18,25,17.70
2012,01,24,18,26,8.10
2012,01,24,18,27,16.10
2012,01,24,18,28,14.50
2012,01,24,18,29,8.10
2012,01,24,18,30,9.60
2012,01,24,18,31,4.80
2012,01,24,18,32,14.50
2012,01,24,18,33,14.50
2012,01,24,18,34,17.70
2012,01,24,18,35,11.30
2012,01,24,18,36,8.10
2012,01,24,18,37,4.80